Location: Killam
(52.7910°N, 111.8608°W)
Time: 11:33:04
(UTC+00:00)

ISS - Pass Details

Date: 21 January 2026
Orbit: 413 x 428 km, 51.6° (Epoch: 17 February)

Event Time Altitude Azimuth Distance (km) Brightness Sun altitude
Rises 00:30:37 0° 245° (WSW) 2,354 3.0 -6.0°
Reaches altitude 10° 00:32:43 10° 240° (WSW) 1,495 0.9 -6.3°
Maximum altitude 00:36:00 52° 164° (SSE) 528 -3.2 -6.8°
Drops below altitude 10° 00:39:18 10° 86° (E) 1,509 -1.5 -7.2°
Enters shadow 00:39:36 - 85° (E) 1,625 -1.4 -7.3°
